{"data":{"norad_id":66761,"epoch":"2026-09-20T10:35:40.300224Z","epoch_age_seconds":122713,"freshness":"FRESH","line1":"1 66761U 25276CZ  26263.44143866  .00005849  00000+0  24669-3 0  9998","line2":"2 66761  97.4103 336.2784 0000841  70.5067 289.6260 15.23685495 44956","mean_motion":15.23685495,"eccentricity":8.41e-5,"inclination_deg":97.4103,"raan_deg":336.2784,"arg_perigee_deg":70.5067,"mean_anomaly_deg":289.626,"bstar":0.00024669,"rev_number":4495,"period_min":94.507692350251,"perigee_km":494.15746830238,"apogee_km":495.31348545299,"semimajor_km":6872.8724768777,"source":"CELESTRAK","updated_at":"2026-09-21T09:00:16.182936Z"}}